AirNav   Pilot Hours Calculator
 
 1715 users online  

5CL0 Grupe Ranch Airport
Mariposa, California, USA

GOING TO MARIPOSA?


FAA INFORMATION EFFECTIVE 04 NOVEMBER 2021

Location

FAA Identifier: 5CL0
Lat/Long: 37-20-25.7900N 119-51-43.5800W
37-20.429833N 119-51.726333W
37.3404972,-119.8621056
(estimated)
Elevation: 1625 ft. / 495 m (estimated)
Variation: 15E (1990)
From city: 10 miles SE of MARIPOSA, CA
Time zone: UTC -7 (UTC -8 during Standard Time)
Zip code: 95338

Airport Operations

Airport use: Private use. Permission required prior to landing
Activation date: 07/1993
Control tower: no
ARTCC: OAKLAND CENTER
FSS: RANCHO MURIETA FLIGHT SERVICE STATION
Attendance: UNATNDD
Wind indicator: yes
Segmented circle: no

Airport Communications

WX AWOS-3 at MPI (13 nm NW): 135.6 (209-966-2912)

Nearby radio navigation aids

VOR radial/distance  VOR name  Freq  Var
FRAr301/19.1FRIANT VORTAC115.6017E
HYPr059/26.7EL NIDO VOR/DME114.2015E

Airport Services

Runway Information

Runway 9/27

Dimensions: 2800 x 50 ft. / 853 x 15 m
Surface: asphalt
RUNWAY 9  RUNWAY 27
Traffic pattern: leftleft
Obstructions: none15 ft. pline, 100 ft. from runway

Airport Ownership and Management from official FAA records

Ownership: Privately-owned
Owner: GREENLAW FRITZ GRUPE JR
PO BOX 7576
STOCKTON, CA 95267
Phone 209-366-1400
Manager: KELLY WILLIAMS
PO BOX 207007
STOCKTON, CA 95267
Phone 209-401-3094
209-966-5578

Additional Remarks

FOR CD CTC OAKLAND ARTCC AT 510-745-3380.

Instrument Procedures

There are no published instrument procedures at 5CL0.

Some nearby airports with instrument procedures:

KMPI - Mariposa-Yosemite Airport (13 nm NW)
KMAE - Madera Municipal Airport (24 nm SW)
KMCE - Merced Regional Airport/Macready Field (31 nm W)
KMER - Castle Airport (34 nm W)
KFAT - Fresno Yosemite International Airport (35 nm S)
 
Loc | Ops | Rwys | IFR | FBO | Links
Com | Nav | Svcs | Stats | Notes
Area around 5CL0 (Grupe Ranch Airport)
 
Road maps at: MapQuest Bing Google
 
Aerial photo
No photo
 
Sectional chart

 
Airport distance calculator
Flying to Grupe Ranch Airport? Find the distance to fly.

From to 5CL0

Sunrise and sunset
Times for 30-Nov-2021
 Local
(UTC-8)
 Zulu
(UTC)
Morning civil twilight06:2614:26
Sunrise06:5514:55
Sunset16:4100:41
Evening civil twilight17:1001:10

Current date and time
Zulu (UTC)  30-Nov-2021 19:02:13
Local (UTC-8)  30-Nov-2021 11:02:13
 
METAR
KMAE 
25nm SW 
301853Z AUTO VRB03KT 5SM HZ CLR 17/09 A3017 RMK AO2 SLP217 T01670089
KMCE 
31nm W 
301853Z AUTO 19003KT 6SM HZ CLR 17/10 A3016 RMK AO2 SLP213 T01670100
KMER 
34nm W 
301355Z AUTO 10003KT 3SM CLR 04/04 A3015 RMK AO1
KFAT 
34nm S 
301853Z 30003KT 5SM HZ CLR 17/08 A3017 RMK AO2 SLP216 T01670078
KO22 
49nm NW 
301855Z AUTO 26004KT 10SM CLR 19/07 A3018 RMK A01
TAF
KMCE 
31nm W 
301720Z 3018/0118 VRB03KT 5SM HZ SKC FM011200 00000KT 4SM BR SKC FM011600 08001KT 2SM BR SKC
KMER 
34nm W 
301720Z 3018/0118 VRB03KT 5SM BR SKC FM011200 00000KT 4SM BR SKC FM011600 08001KT 2SM BR SKC
KFAT 
34nm S 
301720Z 3018/0118 VRB03KT 5SM HZ SKC FM011200 00000KT 4SM BR SKC
NOTAMs
Click for the latest NOTAMs
NOTAMs are issued by the DoD/FAA and will open in a separate window not controlled by AirNav.

 

 
 

Would you like to see your business listed on this page?

 If your business provides an interesting product or service to pilots, flight crews, aircraft, or users of the Grupe Ranch Airport, you should consider listing it here.  To start the listing process, click on the button below
 
Add a business
 

Other Pages about Grupe Ranch Airport

Update a link
 
Copyright © AirNav, LLC. All rights reserved. Privacy Policy  Contact